Weather Roundup
Issued by NWS

Home | Current Version | Previous Version | Text Only | Print | Product List | Glossary On
Versions: 1 2 3 4 5 6 7 8 9 10 11 12 13 14 15 16 17 18 19 20 21 22 23 24 25 26 27 28 29 30 31 32 33 34 35 36 37 38 39 40 41 42 43 44 45 46 47 48 49 50
000
NZUS93 KARX 272310
HRRWXR

CURRENT HOURLY OBSERVATIONS ACROSS
MUCH OF THE UPPER MISSISSIPPI VALLEY
NATIONAL WEATHER SERVICE LA CROSSE WI
600 PM CDT FRI MAR 27 2015


...SOUTHEAST MINNESOTA...


CITY           SKY/WX    TMP DP  RH WIND       PRES   REMARKS
ROCHESTER      SUNNY     27  10  49 SW3       30.15F
ROCHESTER/MAYO FAIR      31  12  45 SW3       30.15S
WINONA         SUNNY     34  12  40 SW5       30.17S WCI  30
AUSTIN         SUNNY     27  10  50 E5        30.15S WCI  21
ALBERT LEA     SUNNY     30  12  47 NE5       30.14S WCI  25
DODGE CENTER   SUNNY     27   5  39 CALM      30.15S
PRESTON        SUNNY     28   9  45 CALM      30.15F
OWATONNA       SUNNY     28   5  37 CALM      30.16R
FARIBAULT      MOSUNNY   30   7  37 CALM      30.16S
$$

...ELSEWHERE IN MINNESOTA...


CITY           SKY/WX    TMP DP  RH WIND       PRES   REMARKS
MINNEAPOLIS    PTSUNNY   33   6  32 SW8       30.15S WCI  26
INTNL FALLS    SUNNY     34   3  27 E5        30.09S WCI  30
DULUTH         SUNNY     29   3  33 SE9       30.12S WCI  20
RED WING       SUNNY     34   3  27 W3        30.16R
REDWOOD FALLS  CLOUDY    36  10  34 CALM      30.11F
MANKATO        PTSUNNY   30  10  43 E8        30.15S WCI  23
WORTHINGTON    CLOUDY    34   9  35 SW12      30.10F WCI  25
FAIRMONT       PTSUNNY   36   9  32 S3        30.11F
$$

...SOUTHWEST WISCONSIN...


CITY           SKY/WX    TMP DP  RH WIND       PRES   REMARKS
LA CROSSE      SUNNY     36   8  31 CALM      30.16F
PRAIRIE DU CHI SUNNY     32   6  33 CALM      30.18S
BOSCOBEL       SUNNY     35  10  35 NW7       30.17F WCI  29
LONE ROCK      SUNNY     35   5  28 VRB5      30.16S WCI  31
PLATTEVILLE    SUNNY     32  10  39 W6        30.16S WCI  26
FORT MC COY    SUNNY     35   3  26 CALM      30.15F
CAMP DOUGLAS   SUNNY     35   5  28 N3        30.14F
VIROQUA        FAIR      32   8  37 CALM      30.13F
WIS DELLS      SUNNY     33   3  27 NE7       30.14S WCI  27
$$

...ELSEWHERE IN WISCONSIN...


CITY           SKY/WX    TMP DP  RH WIND       PRES   REMARKS
MILWAUKEE      MOSUNNY   26  12  55 NE13      30.18R WCI  15
MADISON        SUNNY     34   3  27 N5        30.15S WCI  30
GREEN BAY      SUNNY     29   8  41 NE6       30.18S WCI  23
EAU CLAIRE     SUNNY     35   5  28 VRB3      30.14S
BLACK RVR FLS  FAIR      36   2  23 W5        30.14F WCI  32
MEDFORD        SUNNY     30   7  37 S3        30.11F
WAUSAU         SUNNY     31   1  28 VRB5      30.11F WCI  26
WIS RAPIDS     SUNNY     31   3  30 CALM      30.16F
MARSHFIELD     SUNNY     32   6  33 CALM      30.13F
RICE LAKE      SUNNY     33   4  29 CALM      30.16R
$$

...NORTHEAST IOWA...


CITY           SKY/WX    TMP DP  RH WIND       PRES   REMARKS
DECORAH        SUNNY     28   9  43 NW5       30.15S WCI  23
MASON CITY     MOSUNNY   36  11  35 NE3       30.14S
CHARLES CITY   SUNNY     32  14  47 NE8       30.16S WCI  25
OELWEIN        SUNNY     32  10  40 N6        30.16S WCI  26
$$

...ELSEWHERE IN IOWA...


CITY           SKY/WX    TMP DP  RH WIND       PRES   REMARKS
DES MOINES     CLOUDY    40   7  25 CALM      30.15S
IOWA CITY      SUNNY     38   8  29 N10       30.17F WCI  31
FORT DODGE     CLOUDY    37  10  32 SW3       30.13F
$$

...NORTHERN ILLINOIS...


CITY           SKY/WX    TMP DP  RH WIND       PRES   REMARKS
CHICAGO-OHARE  MOSUNNY   28  13  53 NE15      30.16R WCI  16
CHICAGO-MIDWAY MOSUNNY   30  13  49 NE15G21   30.17R WCI  19
MOLINE         SUNNY     38   6  26 N7        30.15F WCI  33
ROCKFORD       SUNNY     34   5  29 N9        30.17S WCI  27
PEORIA         SUNNY     37  11  34 N9        30.17R WCI  30
$$

NOTE: "FAIR" INDICATES FEW OR NO CLOUDS BELOW 12,000 FEET WITH NO
SIGNIFICANT WEATHER AND/OR OBSTRUCTIONS TO VISIBILITY. WIND
SPEEDS ARE IN MILES-PER-HOUR.



USA.gov is the U.S. government's official web portal to all federal, state and local government web resources and services.